GW3653 Weather Reports


Display with metric or nautical units.
time (UTC)temp
F
wind
direction
speed
MPH
gust
MPH
rain 1hr
in
rain 24hr
in
rain mn
in
humidity
%
barometer
mb
20260504184518 54 0.0 0.0 0.00 0.02 0.00 93 1027.9
20260504183517 54 0.0 0.0 0.00 0.03 0.00 93 1028.0
20260504182537 54 0.0 0.0 0.00 0.03 0.00 93 1028.0
20260504181517 53 0.0 0.0 0.00 0.03 0.00 93 1027.9
20260504180518 53 0.0 0.0 0.00 0.03 0.00 92 1027.9
20260504175537 53 0.0 0.0 0.00 0.03 0.00 92 1028.0
20260504174517 53 0.0 0.0 0.00 0.03 0.00 92 1028.0
20260504173518 53 0.0 0.0 0.00 0.03 0.00 92 1028.0
20260504172518 53 0.0 0.0 0.00 0.03 0.00 92 1028.1
20260504171517 53 0.0 0.0 0.00 0.03 0.00 92 1028.0
20260504170517 53 0.0 0.0 0.00 0.03 0.00 92 1028.1
20260504150517 55 0.0 0.0 0.00 0.03 0.03 90 1028.6
20260504140517 57 0.0 0.0 0.00 0.04 0.03 90 1028.8
20260504130517 57 0.0 0.0 0.00 0.04 0.03 90 1029.0
20260504110518 59 0.0 2.0 0.00 0.04 0.03 89 1029.0
20260504100518 59 0.0 2.0 0.00 0.04 0.03 87 1028.6
20260504081518 62 113 1.0 3.0 0.00 0.04 0.03 82 1028.1
20260504080517 63 158 1.0 4.0 0.00 0.04 0.03 82 1028.1
20260504050517 64 0.0 1.0 0.00 0.04 0.03 71 1028.0
20260504045537 65 270 1.0 3.0 0.00 0.04 0.03 70 1028.2
20260504044537 65 0.0 1.0 0.00 0.04 0.03 72 1028.2
20260504043518 64 0.0 0.0 0.00 0.04 0.03 75 1028.4
20260504042517 64 0.0 1.0 0.00 0.04 0.03 75 1028.6
20260504041537 63 0.0 1.0 0.00 0.04 0.03 76 1028.7
20260504040517 63 0.0 2.0 0.00 0.04 0.03 75 1028.8
20260504035517 62 225 1.0 4.0 0.00 0.04 0.03 79 1028.8
20260504034517 62 225 1.0 3.0 0.00 0.04 0.03 81 1029.0
20260504033517 62 225 1.0 3.0 0.00 0.04 0.03 84 1029.1
20260504032517 62 225 1.0 3.0 0.00 0.04 0.03 86 1029.3
20260504031517 61 248 1.0 4.0 0.00 0.04 0.03 89 1029.3
20260504030518 61 248 1.0 3.0 0.00 0.04 0.03 91 1029.3
20260504025517 61 0.0 2.0 0.00 0.04 0.03 92 1029.4
20260504024537 60 225 1.0 2.0 0.00 0.04 0.03 93 1029.3
20260504023519 60 0.0 1.0 0.00 0.04 0.03 94 1029.4
20260504022519 59 180 1.0 2.0 0.00 0.04 0.03 94 1029.4
20260504021519 59 0.0 2.0 0.00 0.04 0.03 94 1029.4
20260504020519 59 225 1.0 3.0 0.00 0.04 0.03 94 1029.4
20260504015519 58 0.0 1.0 0.00 0.04 0.03 94 1029.4
20260504014519 58 248 1.0 2.0 0.00 0.04 0.03 94 1029.3
20260504013519 57 0.0 3.0 0.00 0.04 0.03 94 1029.4
20260504012519 57 225 1.0 3.0 0.00 0.04 0.03 95 1029.6
20260504011519 57 0.0 2.0 0.00 0.04 0.03 95 1029.6
20260504010519 57 0.0 1.0 0.00 0.04 0.03 95 1029.6
20260504005519 57 0.0 1.0 0.00 0.04 0.03 95 1029.7
20260504004519 57 0.0 2.0 0.00 0.04 0.03 95 1029.6
20260504003519 56 0.0 1.0 0.00 0.04 0.03 95 1029.5
20260504002519 56 0.0 1.0 0.00 0.04 0.03 95 1029.5
20260504001519 56 0.0 0.0 0.00 0.04 0.03 95 1029.4
20260504000519 56 0.0 1.0 0.00 0.04 0.03 95 1029.3
20260503235519 55 0.0 1.0 0.00 0.04 0.03 95 1029.2
20260503234519 55 0.0 0.0 0.00 0.04 0.03 95 1029.1
20260503233518 55 0.0 0.0 0.00 0.04 0.03 95 1028.9
20260503232519 55 0.0 0.0 0.00 0.05 0.03 95 1028.8
20260503231518 55 0.0 0.0 0.00 0.06 0.03 95 1028.5
20260503230518 55 0.0 0.0 0.00 0.06 0.03 95 1028.5
20260503225519 55 0.0 0.0 0.00 0.06 0.03 95 1028.5
20260503224518 55 0.0 1.0 0.01 0.06 0.03 95 1028.4
20260503223518 55 0.0 1.0 0.01 0.06 0.03 95 1028.4
20260503222519 55 0.0 0.0 0.02 0.06 0.03 95 1028.4
20260503221519 55 0.0 1.0 0.02 0.06 0.03 95 1028.4
20260503220519 55 0.0 2.0 0.02 0.06 0.03 95 1028.3
20260503215538 55 0.0 0.0 0.02 0.06 0.03 95 1028.4
20260503214519 55 0.0 0.0 0.02 0.05 0.02 95 1028.4
20260503213518 55 0.0 1.0 0.02 0.05 0.02 95 1028.3
20260503212518 55 0.0 1.0 0.01 0.04 0.02 95 1028.5
20260503211522 54 0.0 0.0 0.01 0.04 0.02 95 1028.5
20260503210519 55 0.0 0.0 0.00 0.03 0.01 95 1028.4
20260503205518 55 0.0 0.0 0.00 0.03 0.01 95 1028.5
20260503204518 54 0.0 0.0 0.00 0.03 0.01 95 1028.6
20260503203518 54 0.0 0.0 0.00 0.03 0.01 95 1028.6
20260503202518 53 0.0 0.0 0.00 0.03 0.01 95 1028.6
20260503201519 53 0.0 0.0 0.00 0.03 0.01 94 1028.5
20260503200518 53 0.0 0.0 0.00 0.03 0.01 94 1028.4
20260503195518 53 0.0 0.0 0.00 0.03 0.01 94 1028.5
20260503194538 54 0.0 0.0 0.00 0.03 0.01 94 1028.4
20260503193518 54 0.0 0.0 0.01 0.03 0.01 94 1028.2
20260503192518 54 0.0 1.0 0.01 0.03 0.01 94 1028.2
20260503191518 54 0.0 0.0 0.01 0.04 0.01 94 1028.2
20260503190538 54 0.0 1.0 0.01 0.04 0.01 94 1028.3
20260503185538 54 0.0 0.0 0.01 0.04 0.01 94 1028.4